Regional Weather Roundup
Issued by NWS New Orleans/Baton Rouge, LA

Home | Current Version | Previous Version | Text Only | Print | Product List | Glossary Off
Versions: 1 2 3 4 5 6 7 8 9 10 11 12 13 14 15 16 17 18 19 20 21 22 23 24 25 26 27 28 29 30 31 32 33 34 35 36 37 38 39 40 41 42 43 44 45 46 47 48 49 50

980
ASUS44 KLIX 240001
RWRLIX
NEW ORLEANS REGIONAL WEATHER ROUNDUP
NATIONAL WEATHER SERVICE NEW ORLEANS LA
700 PM CDT WED JUL 23 2014

NOTE: "FAIR" INDICATES FEW OR NO CLOUDS BELOW 12,000 FEET WITH NO
      SIGNIFICANT WEATHER AND/OR OBSTRUCTIONS TO VISIBILITY.
      SKY/WX - SKY CONDITION AND SIGNIFICANT WEATHER.
      TMP - AIR TEMPERATURE.     DP    - DEWPOINT TEMPERATURE.
      RH  - RELATIVE HUMIDITY.   PRES  - PRESSURE.
      HI  - HEAT INDEX.          WCI   - WIND CHILL INDEX.

*  THESE STATIONS ARE NOT NWS OR FAA STATIONS AND ARE NOT UNDER
   NWS QUALITY CONTROL.

LAZ038-040-048-061>063-065>067-069-240100-
SOUTHEAST LOUISIANA

CITY           SKY/WX    TMP DP  RH WIND       PRES   REMARKS
N.O. AUDUBON     N/A     82  71  69 MISG        N/A
6HR MIN TEMP:  81; 6HR MAX TEMP:  85;

N.O. INTL ARPT PTSUNNY   81  72  74 SW6       29.96S
6HR MIN TEMP:  81; 6HR MAX TEMP:  85;

N.O. LAKEFRONT SUNNY     82  70  66 S7        29.97R
6HR MIN TEMP:  80; 6HR MAX TEMP:  84;

N.O. DOWNTOWN*   N/A     82  70  65 SE3       29.97R
6HR MIN TEMP:  81; 6HR MAX TEMP:  84;

SLIDELL        SUNNY     82  72  71 S3        29.96R
6HR MIN TEMP:  82; 6HR MAX TEMP:  85;

BATON ROUGE    PTSUNNY   83  72  69 VRB6      29.97R
6HR MIN TEMP:  83; 6HR MAX TEMP:  91;

BOOTHVILLE     LGT RAIN  81  73  76 CALM      29.97S
6HR MIN TEMP:  77; 6HR MAX TEMP:  83; 6HR PCP: TRACE;

BELLE CHASSE   PTSUNNY   81  70  69 S7        29.96S
6HR MIN TEMP:  77; 6HR MAX TEMP:  83; 6HR PCP: TRACE;

BOGALUSA*        N/A     84  72  65 CALM      29.98R
6HR MIN TEMP:  81; 6HR MAX TEMP:  89;

GALLIANO*      NOT AVBL
NEW ROADS*       N/A     84  74  71 CALM      29.97R
6HR MIN TEMP:  84; 6HR MAX TEMP:  89; 6HR PCP:  0.01;

GONZALES*        N/A     82  76  79 CALM      29.96R
6HR MIN TEMP:  82; 6HR MAX TEMP:  89;

HAMMOND*       MOSUNNY   82  72  69 SE5       29.98R
HOUMA*         PTSUNNY   82  70  65 SE5       29.96F
PORT FOURCHON* CLEAR     81  72  74 S8        29.98R

$$

MSZ070-080>082-240100-
SOUTHERN MISSISSIPPI

CITY           SKY/WX    TMP DP  RH WIND       PRES   REMARKS
MCCOMB         MOSUNNY   84  72  67 S6        29.99R
6HR MIN TEMP:  84; 6HR MAX TEMP:  90;

GULFPORT       SUNNY     84  71  65 S6        29.97R
6HR MIN TEMP:  84; 6HR MAX TEMP:  87;

BILOXI         SUNNY     81  72  75 S5        29.97S
6HR MIN TEMP:  81; 6HR MAX TEMP:  83;

PASCAGOULA     SUNNY     81  73  76 VRB5      29.98R
6HR MIN TEMP:  79; 6HR MAX TEMP:  85;

STENNIS ARPT*  SUNNY    N/A N/A N/A S7        29.97R

$$

COASTAL OBSERVATIONS
LAKE AND NEARSHORE STATIONS

STATION/POSITION TIME  TEMP    WIND        PRES    WAVE
                       AIR SEA DIR/SP/G            HT/PER
                 (UTC) (F)     (DEG/KT/KT) (MB)    (FT/S)
WAVELAND YACHT   2300   81     170/  7/ 10 1014.3
GRAND ISLE       2300   81 85  180/  4/  6 1015.2
SOUTHWEST PASS   2300   83 85  200/  3/  5 1015.3
NEW CANAL        2300   85 83   CALM  /  2 1014.9
SHELL BEACH      2300   82 81  160/  6/  9 1014.5

OFFSHORE STATIONS

STATION/POSITION TIME  TEMP    WIND        PRES    WAVE
                       AIR SEA DIR/SP/G            HT/PER
                 (UTC) (F)     (DEG/KT/KT) (MB)    (FT/S)

$$




USA.gov is the U.S. government's official web portal to all federal, state and local government web resources and services.